User: anonymous   Login
Location: Unspecified
(0.0000°N, 0.0000°E)
Time: 19:04:56
(UTC+00:00)
Language:

STARLINK-11266 [DTC] - Orbit

View from above orbital plane
View from above orbital plane
View from above satellite
View from above satellite

Ground track
Ground track

The orbit is defined by the following mean orbital elements,

1 60732U          26145.24337708 +.00000000 +00000-0 +13719-4 0 00008
2 60732  53.1589  98.4934 0001184 120.9380 239.1754 15.69711234    05
Epoch (UTC): 25 May 2026 05:50:27
Eccentricity: 0.0001184
inclination: 53.1589°
perigee height: 359 km
apogee height: 361 km
right ascension of ascending node: 98.4934°
argument of perigee: 120.9380°
revolutions per day: 15.69711234
mean anomaly at epoch: 239.1754°

The dashed part of the orbit path shows where the satellite is in the earth's shadow,  

DLR